,,PressureMeas_1m,,PRMeasQMR101_1,,RHStat155_1m_1,,SRMeasQMS101R_1m,,TAStat155_1m_1,,GenWind_1,,GenWind_1,
2018-11-27, 07:00:06,VALID,919.203,VALID,0.0,VALID,99.323,VALID,144.764,VALID,19.745,VALID,118.0,VALID,0.0,
2018-11-27, 07:01:06,VALID,919.193,VALID,0.0,VALID,99.34,VALID,148.231,VALID,19.801,VALID,115.0,VALID,0.0,
2018-11-27, 07:02:06,VALID,919.211,VALID,0.0,VALID,99.33,VALID,150.191,VALID,19.841,VALID,112.0,VALID,0.0,
2018-11-27, 07:03:06,VALID,919.219,VALID,0.0,VALID,99.345,VALID,152.221,VALID,19.942,VALID,110.0,VALID,0.0,
2018-11-27, 07:04:06,VALID,919.242,VALID,0.0,VALID,99.353,VALID,154.269,VALID,20.0,VALID,127.0,VALID,0.0,
2018-11-27, 07:05:06,VALID,919.252,VALID,0.0,VALID,99.304,VALID,158.413,VALID,19.986,VALID,122.0,VALID,0.0,
2018-11-27, 07:06:06,VALID,919.244,VALID,0.0,VALID,99.298,VALID,159.877,VALID,20.035,VALID,134.0,VALID,0.0,
2018-11-27, 07:07:06,VALID,919.253,VALID,0.0,VALID,99.295,VALID,159.744,VALID,20.073,VALID,127.0,VALID,0.0,
2018-11-27, 07:08:06,VALID,919.254,VALID,0.0,VALID,99.233,VALID,173.03,VALID,20.056,VALID,129.0,VALID,0.0,
2018-11-27, 07:09:06,VALID,919.249,VALID,0.0,VALID,99.223,VALID,183.362,VALID,20.094,VALID,119.0,VALID,0.0,
2018-11-27, 07:10:06,VALID,919.247,VALID,0.0,VALID,99.177,VALID,190.462,VALID,20.116,VALID,139.0,VALID,0.0,
2018-11-27, 07:11:06,VALID,919.27,VALID,0.0,VALID,99.174,VALID,197.797,VALID,20.171,VALID,127.0,VALID,0.0,
2018-11-27, 07:12:06,VALID,919.281,VALID,0.0,VALID,99.111,VALID,199.276,VALID,20.181,VALID,130.0,VALID,0.0,
2018-11-27, 07:13:06,VALID,919.305,VALID,0.0,VALID,99.109,VALID,207.318,VALID,20.25,VALID,117.0,VALID,0.0,
2018-11-27, 07:14:06,VALID,919.34,VALID,0.0,VALID,99.056,VALID,205.547,VALID,20.297,VALID,129.0,VALID,0.0,
2018-11-27, 07:15:06,VALID,919.357,VALID,0.0,VALID,98.974,VALID,209.021,VALID,20.344,VALID,134.0,VALID,0.0,
2018-11-27, 07:16:06,VALID,919.372,VALID,0.0,VALID,98.893,VALID,219.539,VALID,20.377,VALID,125.0,VALID,0.0,
2018-11-27, 07:17:06,VALID,919.382,VALID,0.0,VALID,98.809,VALID,212.124,VALID,20.42,VALID,136.0,VALID,0.0,
2018-11-27, 07:18:06,VALID,919.404,VALID,0.0,VALID,98.819,VALID,209.204,VALID,20.525,VALID,144.0,VALID,0.0,
2018-11-27, 07:19:06,VALID,919.429,VALID,0.0,VALID,98.68,VALID,228.644,VALID,20.588,VALID,132.0,VALID,0.0,
2018-11-27, 07:20:06,VALID,919.457,VALID,0.0,VALID,98.571,VALID,210.092,VALID,20.681,VALID,105.0,VALID,0.0,
2018-11-27, 07:21:06,VALID,919.474,VALID,0.0,VALID,98.326,VALID,230.172,VALID,20.716,VALID,132.0,VALID,0.0,
2018-11-27, 07:22:06,VALID,919.492,VALID,0.0,VALID,97.944,VALID,203.959,VALID,20.709,VALID,138.0,VALID,0.0,
2018-11-27, 07:23:06,VALID,919.487,VALID,0.0,VALID,97.616,VALID,222.5,VALID,20.737,VALID,125.0,VALID,0.0,
2018-11-27, 07:24:06,VALID,919.514,VALID,0.0,VALID,97.277,VALID,231.806,VALID,20.781,VALID,148.0,VALID,0.0,
2018-11-27, 07:25:06,VALID,919.52,VALID,0.0,VALID,96.734,VALID,234.442,VALID,20.776,VALID,138.0,VALID,0.0,
2018-11-27, 07:26:06,VALID,919.544,VALID,0.0,VALID,96.212,VALID,244.952,VALID,20.799,VALID,122.0,VALID,0.0,
2018-11-27, 07:27:06,VALID,919.563,VALID,0.0,VALID,95.742,VALID,220.358,VALID,20.825,VALID,132.0,VALID,0.0,
2018-11-27, 07:28:06,VALID,919.594,VALID,0.0,VALID,95.523,VALID,252.289,VALID,20.878,VALID,137.0,VALID,0.0,
2018-11-27, 07:29:06,VALID,919.597,VALID,0.0,VALID,95.425,VALID,252.69,VALID,20.968,VALID,126.0,VALID,0.0,
2018-11-27, 07:30:06,VALID,919.633,VALID,0.0,VALID,95.094,VALID,255.882,VALID,21.037,VALID,110.0,VALID,0.0,
2018-11-27, 07:31:06,VALID,919.647,VALID,0.0,VALID,94.902,VALID,258.992,VALID,21.101,VALID,129.0,VALID,0.0,
2018-11-27, 07:32:06,VALID,919.667,VALID,0.0,VALID,94.746,VALID,263.889,VALID,21.161,VALID,129.0,VALID,0.0,
2018-11-27, 07:33:06,VALID,919.699,VALID,0.0,VALID,94.218,VALID,267.036,VALID,21.18,VALID,128.0,VALID,0.0,
2018-11-27, 07:34:06,VALID,919.727,VALID,0.0,VALID,94.349,VALID,271.046,VALID,21.267,VALID,134.0,VALID,0.0,
2018-11-27, 07:35:06,VALID,919.757,VALID,0.0,VALID,93.366,VALID,269.825,VALID,21.311,VALID,132.0,VALID,0.0,
2018-11-27, 07:36:06,VALID,919.772,VALID,0.0,VALID,92.238,VALID,272.474,VALID,21.29,VALID,131.0,VALID,0.0,
2018-11-27, 07:37:06,VALID,919.782,VALID,0.0,VALID,92.367,VALID,256.443,VALID,21.298,VALID,126.0,VALID,0.0,
2018-11-27, 07:38:06,VALID,919.792,VALID,0.0,VALID,92.42,VALID,252.922,VALID,21.308,VALID,119.0,VALID,0.66,
2018-11-27, 07:39:06,VALID,919.799,VALID,0.0,VALID,92.851,VALID,269.733,VALID,21.376,VALID,118.0,VALID,1.145,
2018-11-27, 07:40:06,VALID,919.826,VALID,0.0,VALID,92.535,VALID,285.783,VALID,21.444,VALID,130.0,VALID,1.63,
2018-11-27, 07:41:06,VALID,919.845,VALID,0.0,VALID,91.85,VALID,286.661,VALID,21.48,VALID,132.0,VALID,1.188,
2018-11-27, 07:42:06,VALID,919.867,VALID,0.0,VALID,92.296,VALID,287.782,VALID,21.548,VALID,133.0,VALID,0.689,
2018-11-27, 07:43:06,VALID,919.898,VALID,0.0,VALID,92.639,VALID,292.165,VALID,21.618,VALID,133.0,VALID,0.366,
2018-11-27, 07:44:06,VALID,919.919,VALID,0.0,VALID,92.48,VALID,299.207,VALID,21.752,VALID,122.0,VALID,0.286,
2018-11-27, 07:45:06,VALID,919.942,VALID,0.0,VALID,91.712,VALID,306.462,VALID,21.937,VALID,138.0,VALID,0.0,
2018-11-27, 07:46:06,VALID,919.964,VALID,0.0,VALID,90.774,VALID,312.409,VALID,22.09,VALID,115.0,VALID,0.675,
2018-11-27, 07:47:06,VALID,919.976,VALID,0.0,VALID,88.71,VALID,321.54,VALID,22.024,VALID,118.0,VALID,0.666,
2018-11-27, 07:48:06,VALID,919.985,VALID,0.0,VALID,89.287,VALID,331.512,VALID,21.942,VALID,118.0,VALID,0.761,
2018-11-27, 07:49:06,VALID,920.007,VALID,0.0,VALID,89.854,VALID,339.052,VALID,21.937,VALID,118.0,VALID,0.984,
2018-11-27, 07:50:06,VALID,920.012,VALID,0.0,VALID,90.006,VALID,344.705,VALID,21.971,VALID,107.0,VALID,0.468,
2018-11-27, 07:51:06,VALID,920.033,VALID,0.0,VALID,90.101,VALID,342.401,VALID,22.079,VALID,99.0,VALID,0.921,
2018-11-27, 07:52:06,VALID,920.045,VALID,0.0,VALID,89.318,VALID,346.002,VALID,22.117,VALID,107.0,VALID,1.638,
2018-11-27, 07:53:06,VALID,920.084,VALID,0.0,VALID,88.586,VALID,341.789,VALID,22.076,VALID,126.0,VALID,0.882,
2018-11-27, 07:54:06,VALID,920.127,VALID,0.0,VALID,89.717,VALID,291.79,VALID,22.169,VALID,108.0,VALID,0.0,
2018-11-27, 07:55:06,VALID,920.14,VALID,0.0,VALID,87.174,VALID,289.87,VALID,22.151,VALID,132.0,VALID,0.0,
2018-11-27, 07:56:06,VALID,920.162,VALID,0.0,VALID,88.372,VALID,301.834,VALID,22.089,VALID,115.0,VALID,0.0,
2018-11-27, 07:57:06,VALID,920.176,VALID,0.0,VALID,88.558,VALID,305.168,VALID,22.134,VALID,118.0,VALID,0.0,
2018-11-27, 07:58:06,VALID,920.192,VALID,0.0,VALID,88.08,VALID,360.011,VALID,22.097,VALID,128.0,VALID,0.916,
2018-11-27, 07:59:06,VALID,920.201,VALID,0.0,VALID,89.075,VALID,368.678,VALID,22.121,VALID,141.0,VALID,0.646,
2018-11-27, 08:00:06,VALID,920.226,VALID,0.0,VALID,88.411,VALID,358.263,VALID,22.251,VALID,115.0,VALID,0.004,
2018-11-27, 08:01:06,VALID,920.23,VALID,0.0,VALID,88.054,VALID,377.202,VALID,22.367,VALID,134.0,VALID,0.427,
2018-11-27, 08:02:06,VALID,920.224,VALID,0.0,VALID,87.811,VALID,402.868,VALID,22.422,VALID,157.0,VALID,0.121,
2018-11-27, 08:03:06,VALID,920.237,VALID,0.0,VALID,87.365,VALID,398.859,VALID,22.512,VALID,91.0,VALID,0.452,
2018-11-27, 08:04:06,VALID,920.221,VALID,0.0,VALID,86.972,VALID,393.783,VALID,22.641,VALID,129.0,VALID,1.209,
2018-11-27, 08:05:06,VALID,920.211,VALID,0.0,VALID,84.876,VALID,393.863,VALID,22.629,VALID,130.0,VALID,0.649,
2018-11-27, 08:06:06,VALID,920.21,VALID,0.0,VALID,86.598,VALID,394.227,VALID,22.74,VALID,111.0,VALID,0.127,
2018-11-27, 08:07:06,VALID,920.205,VALID,0.0,VALID,85.136,VALID,394.055,VALID,22.83,VALID,124.0,VALID,0.0,
2018-11-27, 08:08:06,VALID,920.231,VALID,0.0,VALID,84.202,VALID,395.194,VALID,22.766,VALID,103.0,VALID,0.0,
2018-11-27, 08:09:06,VALID,920.233,VALID,0.0,VALID,84.763,VALID,399.215,VALID,22.767,VALID,121.0,VALID,0.0,
2018-11-27, 08:10:06,VALID,920.23,VALID,0.0,VALID,84.14,VALID,401.779,VALID,22.88,VALID,125.0,VALID,0.0,
2018-11-27, 08:11:06,VALID,920.227,VALID,0.0,VALID,83.365,VALID,406.005,VALID,23.024,VALID,121.0,VALID,0.154,
2018-11-27, 08:12:06,VALID,920.229,VALID,0.0,VALID,83.241,VALID,411.359,VALID,23.156,VALID,138.0,VALID,0.807,
2018-11-27, 08:13:06,VALID,920.242,VALID,0.0,VALID,81.725,VALID,413.867,VALID,23.163,VALID,125.0,VALID,1.177,
2018-11-27, 08:14:06,VALID,920.229,VALID,0.0,VALID,81.514,VALID,419.047,VALID,23.028,VALID,135.0,VALID,0.978,
2018-11-27, 08:15:06,VALID,920.23,VALID,0.0,VALID,82.959,VALID,404.008,VALID,23.024,VALID,140.0,VALID,0.0,
2018-11-27, 08:16:06,VALID,920.239,VALID,0.0,VALID,82.351,VALID,414.814,VALID,23.15,VALID,150.0,VALID,0.0,
2018-11-27, 08:17:06,VALID,920.235,VALID,0.0,VALID,82.537,VALID,425.489,VALID,23.124,VALID,149.0,VALID,0.0,
2018-11-27, 08:18:06,VALID,920.242,VALID,0.0,VALID,82.771,VALID,432.617,VALID,23.17,VALID,165.0,VALID,0.0,
2018-11-27, 08:19:06,VALID,920.255,VALID,0.0,VALID,81.89,VALID,440.259,VALID,23.33,VALID,111.0,VALID,0.0,
2018-11-27, 08:20:06,VALID,920.269,VALID,0.0,VALID,80.931,VALID,445.558,VALID,23.521,VALID,86.0,VALID,0.097,
2018-11-27, 08:21:06,VALID,920.286,VALID,0.0,VALID,81.206,VALID,448.747,VALID,23.501,VALID,78.0,VALID,0.859,
2018-11-27, 08:22:06,VALID,920.284,VALID,0.0,VALID,82.598,VALID,451.924,VALID,23.394,VALID,92.0,VALID,0.255,
2018-11-27, 08:23:06,VALID,920.287,VALID,0.0,VALID,83.662,VALID,454.301,VALID,23.58,VALID,80.0,VALID,0.104,
2018-11-27, 08:24:06,VALID,920.286,VALID,0.0,VALID,83.383,VALID,457.45,VALID,23.747,VALID,53.0,VALID,0.0,
2018-11-27, 08:25:06,VALID,920.285,VALID,0.0,VALID,82.777,VALID,461.308,VALID,23.725,VALID,34.0,VALID,0.0,
2018-11-27, 08:26:06,VALID,920.283,VALID,0.0,VALID,81.712,VALID,471.238,VALID,23.614,VALID,38.0,VALID,0.0,
2018-11-27, 08:27:06,VALID,920.291,VALID,0.0,VALID,81.947,VALID,478.769,VALID,23.571,VALID,25.0,VALID,0.0,
2018-11-27, 08:28:06,VALID,920.299,VALID,0.0,VALID,82.478,VALID,483.975,VALID,23.479,VALID,36.0,VALID,0.0,
2018-11-27, 08:29:06,VALID,920.31,VALID,0.0,VALID,84.573,VALID,489.953,VALID,23.527,VALID,61.0,VALID,0.0,
2018-11-27, 08:30:06,VALID,920.329,VALID,0.0,VALID,82.706,VALID,495.889,VALID,23.723,VALID,124.0,VALID,0.0,
2018-11-27, 08:31:06,VALID,920.343,VALID,0.0,VALID,81.108,VALID,502.435,VALID,23.937,VALID,70.0,VALID,0.0,
2018-11-27, 08:32:06,VALID,920.349,VALID,0.0,VALID,80.381,VALID,511.473,VALID,23.979,VALID,43.0,VALID,0.0,
2018-11-27, 08:33:06,VALID,920.35,VALID,0.0,VALID,80.243,VALID,520.36,VALID,23.818,VALID,50.0,VALID,0.0,
2018-11-27, 08:34:06,VALID,920.358,VALID,0.0,VALID,80.34,VALID,529.994,VALID,23.739,VALID,28.0,VALID,0.0,
2018-11-27, 08:35:06,VALID,920.365,VALID,0.0,VALID,80.907,VALID,539.969,VALID,23.647,VALID,42.0,VALID,0.0,
2018-11-27, 08:36:06,VALID,920.376,VALID,0.0,VALID,80.633,VALID,546.189,VALID,23.85,VALID,73.0,VALID,0.0,
2018-11-27, 08:37:06,VALID,920.386,VALID,0.0,VALID,79.458,VALID,549.487,VALID,24.185,VALID,84.0,VALID,0.0,
2018-11-27, 08:38:06,VALID,920.393,VALID,0.0,VALID,77.569,VALID,561.635,VALID,24.552,VALID,110.0,VALID,0.0,
2018-11-27, 08:39:06,VALID,920.393,VALID,0.0,VALID,76.182,VALID,586.547,VALID,24.912,INVALID,360.0,VALID,0.0,
2018-11-27, 08:40:06,VALID,920.4,VALID,0.0,VALID,76.665,VALID,601.751,VALID,25.118,VALID,42.0,VALID,0.0,
2018-11-27, 08:41:06,VALID,920.401,VALID,0.0,VALID,75.147,VALID,619.5,VALID,25.353,VALID,347.0,VALID,0.0,
2018-11-27, 08:42:06,VALID,920.411,VALID,0.0,VALID,74.377,VALID,641.804,VALID,25.266,VALID,1.0,VALID,0.0,
2018-11-27, 08:43:06,VALID,920.416,VALID,0.0,VALID,75.466,VALID,611.843,VALID,25.145,VALID,306.0,VALID,0.0,
2018-11-27, 08:44:06,VALID,920.422,VALID,0.0,VALID,76.061,VALID,479.162,VALID,24.956,VALID,254.0,VALID,0.0,
2018-11-27, 08:45:06,VALID,920.424,VALID,0.0,VALID,76.784,VALID,504.852,VALID,24.936,VALID,340.0,VALID,0.0,
2018-11-27, 08:46:06,VALID,920.412,VALID,0.0,VALID,77.644,VALID,498.719,VALID,24.98,VALID,329.0,VALID,0.0,
2018-11-27, 08:47:06,VALID,920.412,VALID,0.0,VALID,77.379,VALID,432.794,VALID,24.89,VALID,347.0,VALID,0.0,
2018-11-27, 08:48:06,VALID,920.421,VALID,0.0,VALID,77.181,VALID,402.947,VALID,24.626,VALID,21.0,VALID,0.0,
2018-11-27, 08:49:06,VALID,920.419,VALID,0.0,VALID,78.432,VALID,339.766,VALID,24.495,VALID,348.0,VALID,0.0,
2018-11-27, 08:50:06,VALID,920.435,VALID,0.0,VALID,79.285,VALID,292.094,VALID,24.428,VALID,350.0,VALID,0.0,
2018-11-27, 08:51:06,VALID,920.439,VALID,0.0,VALID,78.185,VALID,263.363,VALID,24.37,VALID,295.0,VALID,0.0,
2018-11-27, 08:52:06,VALID,920.426,VALID,0.0,VALID,77.939,VALID,280.381,VALID,24.201,INVALID,360.0,VALID,0.0,
2018-11-27, 08:53:06,VALID,920.443,VALID,0.0,VALID,78.368,VALID,284.538,VALID,23.877,VALID,265.0,VALID,0.0,
2018-11-27, 08:54:06,VALID,920.446,VALID,0.0,VALID,78.679,VALID,273.667,VALID,23.658,VALID,258.0,VALID,0.0,
2018-11-27, 08:55:06,VALID,920.459,VALID,0.0,VALID,80.783,VALID,270.139,VALID,23.613,VALID,5.0,VALID,0.0,
2018-11-27, 08:56:06,VALID,920.467,VALID,0.0,VALID,82.032,VALID,265.062,VALID,23.753,VALID,1.0,VALID,0.0,
2018-11-27, 08:57:06,VALID,920.47,VALID,0.0,VALID,82.576,VALID,264.162,VALID,23.853,VALID,22.0,VALID,0.0,
2018-11-27, 08:58:06,VALID,920.476,VALID,0.0,VALID,82.667,VALID,269.251,VALID,23.977,VALID,327.0,VALID,0.0,
2018-11-27, 08:59:06,VALID,920.481,VALID,0.0,VALID,82.601,VALID,278.722,VALID,24.056,VALID,309.0,VALID,0.0,
2018-11-27, 09:00:06,VALID,920.466,VALID,0.0,VALID,81.933,VALID,364.345,VALID,24.099,VALID,275.0,VALID,0.0,
2018-11-27, 09:01:06,VALID,920.468,VALID,0.0,VALID,81.513,VALID,347.449,VALID,24.288,VALID,275.0,VALID,0.0,
2018-11-27, 09:02:06,VALID,920.448,VALID,0.0,VALID,81.121,VALID,350.743,VALID,24.31,VALID,273.0,VALID,0.0,
2018-11-27, 09:03:06,VALID,920.432,VALID,0.0,VALID,80.893,VALID,304.858,VALID,24.357,VALID,267.0,VALID,0.0,
2018-11-27, 09:04:06,VALID,920.417,VALID,0.0,VALID,79.322,VALID,300.77,VALID,24.422,VALID,275.0,VALID,0.0,
2018-11-27, 09:05:06,VALID,920.397,VALID,0.0,VALID,76.874,VALID,286.876,VALID,24.32,VALID,256.0,VALID,0.0,
2018-11-27, 09:06:06,VALID,920.389,VALID,0.0,VALID,79.016,VALID,283.019,VALID,24.285,VALID,320.0,VALID,0.0,
2018-11-27, 09:07:06,VALID,920.382,VALID,0.0,VALID,78.929,VALID,284.977,VALID,24.231,INVALID,360.0,VALID,0.0,
2018-11-27, 09:08:06,VALID,920.359,VALID,0.0,VALID,79.988,VALID,290.528,VALID,24.073,VALID,265.0,VALID,0.0,
2018-11-27, 09:09:06,VALID,920.354,VALID,0.0,VALID,81.031,VALID,297.03,VALID,24.022,VALID,254.0,VALID,0.0,
2018-11-27, 09:10:06,VALID,920.341,VALID,0.0,VALID,81.83,VALID,300.489,VALID,24.084,VALID,285.0,VALID,0.0,
2018-11-27, 09:11:06,VALID,920.318,VALID,0.0,VALID,81.223,VALID,309.012,VALID,24.159,VALID,9.0,VALID,0.0,
2018-11-27, 09:12:06,VALID,920.316,VALID,0.0,VALID,81.305,VALID,404.471,VALID,24.225,VALID,13.0,VALID,0.0,
2018-11-27, 09:13:06,VALID,920.292,VALID,0.0,VALID,81.989,VALID,339.388,VALID,24.313,VALID,13.0,VALID,0.0,
2018-11-27, 09:14:06,VALID,920.309,VALID,0.0,VALID,81.457,VALID,383.389,VALID,24.443,VALID,44.0,VALID,0.0,
2018-11-27, 09:15:06,VALID,920.328,VALID,0.0,VALID,79.687,VALID,569.4,VALID,24.539,INVALID,360.0,VALID,0.0,
2018-11-27, 09:16:06,VALID,920.323,VALID,0.0,VALID,79.029,VALID,565.153,VALID,24.643,INVALID,360.0,VALID,0.0,
2018-11-27, 09:17:06,VALID,920.328,VALID,0.0,VALID,78.873,VALID,385.146,VALID,24.754,VALID,18.0,VALID,0.0,
2018-11-27, 09:18:06,VALID,920.338,VALID,0.0,VALID,78.106,VALID,445.261,VALID,24.768,VALID,284.0,VALID,0.0,
2018-11-27, 09:19:06,VALID,920.349,VALID,0.0,VALID,77.513,VALID,432.598,VALID,24.69,VALID,337.0,VALID,0.0,
2018-11-27, 09:20:06,VALID,920.359,VALID,0.0,VALID,78.661,VALID,429.508,VALID,24.669,VALID,343.0,VALID,0.0,
2018-11-27, 09:21:06,VALID,920.367,VALID,0.0,VALID,78.824,VALID,498.209,VALID,24.651,VALID,359.0,VALID,0.0,
2018-11-27, 09:22:06,VALID,920.382,VALID,0.0,VALID,80.46,VALID,631.147,VALID,24.71,VALID,351.0,VALID,0.0,
2018-11-27, 09:23:06,VALID,920.399,VALID,0.0,VALID,80.688,VALID,471.004,VALID,24.926,VALID,336.0,VALID,0.0,
2018-11-27, 09:24:06,VALID,920.391,VALID,0.0,VALID,79.005,VALID,460.531,VALID,25.153,VALID,339.0,VALID,0.0,
2018-11-27, 09:25:06,VALID,920.404,VALID,0.0,VALID,77.423,VALID,597.081,VALID,25.174,VALID,343.0,VALID,0.0,
2018-11-27, 09:26:06,VALID,920.39,VALID,0.0,VALID,77.719,VALID,779.879,VALID,25.196,VALID,314.0,VALID,0.0,
2018-11-27, 09:27:06,VALID,920.375,VALID,0.0,VALID,77.273,VALID,836.454,VALID,25.162,VALID,357.0,VALID,0.0,
2018-11-27, 09:28:06,VALID,920.357,VALID,0.0,VALID,78.23,VALID,559.51,VALID,25.053,VALID,19.0,VALID,0.0,
2018-11-27, 09:29:06,VALID,920.333,VALID,0.0,VALID,78.991,VALID,404.102,VALID,25.041,VALID,31.0,VALID,0.0,
2018-11-27, 09:30:06,VALID,920.32,VALID,0.0,VALID,78.518,VALID,403.791,VALID,25.06,VALID,329.0,VALID,0.0,
2018-11-27, 09:31:06,VALID,920.33,VALID,0.0,VALID,79.216,VALID,469.757,VALID,25.139,VALID,320.0,VALID,0.0,
2018-11-27, 09:32:06,VALID,920.319,VALID,0.0,VALID,76.826,VALID,717.957,VALID,25.238,VALID,326.0,VALID,0.0,
2018-11-27, 09:33:06,VALID,920.327,VALID,0.0,VALID,75.669,VALID,567.527,VALID,25.271,INVALID,360.0,VALID,0.0,
2018-11-27, 09:34:06,VALID,920.339,VALID,0.0,VALID,76.5,VALID,404.562,VALID,25.212,INVALID,360.0,VALID,0.0,
2018-11-27, 09:35:06,VALID,920.337,VALID,0.0,VALID,76.903,VALID,382.099,VALID,25.267,VALID,324.0,VALID,0.0,
2018-11-27, 09:36:06,VALID,920.344,VALID,0.0,VALID,76.778,VALID,383.331,VALID,25.225,INVALID,360.0,VALID,0.0,
2018-11-27, 09:37:06,VALID,920.334,VALID,0.0,VALID,75.537,VALID,381.262,VALID,25.037,VALID,311.0,VALID,0.0,
2018-11-27, 09:38:06,VALID,920.301,VALID,0.0,VALID,77.149,VALID,431.923,VALID,24.954,VALID,340.0,VALID,0.0,
2018-11-27, 09:39:06,VALID,920.292,VALID,0.0,VALID,76.916,VALID,773.053,VALID,24.946,INVALID,360.0,VALID,0.0,
2018-11-27, 09:40:06,VALID,920.261,VALID,0.0,VALID,75.563,VALID,773.845,VALID,24.831,VALID,268.0,VALID,0.0,
2018-11-27, 09:41:06,VALID,920.256,VALID,0.0,VALID,76.49,VALID,518.025,VALID,24.904,VALID,281.0,VALID,0.0,
2018-11-27, 09:42:06,VALID,920.258,VALID,0.0,VALID,75.795,VALID,577.388,VALID,24.888,VALID,263.0,VALID,0.0,
2018-11-27, 09:43:06,VALID,920.266,VALID,0.0,VALID,76.666,VALID,632.247,VALID,24.949,INVALID,360.0,VALID,0.0,
2018-11-27, 09:44:06,VALID,920.278,VALID,0.0,VALID,77.598,VALID,718.737,VALID,24.983,INVALID,360.0,VALID,0.0,
2018-11-27, 09:45:06,VALID,920.291,VALID,0.0,VALID,75.613,VALID,802.903,VALID,24.986,INVALID,360.0,VALID,0.0,
2018-11-27, 09:46:06,VALID,920.3,VALID,0.0,VALID,75.782,VALID,785.957,VALID,24.987,VALID,270.0,VALID,0.0,
2018-11-27, 09:47:06,VALID,920.287,VALID,0.0,VALID,75.512,VALID,915.125,VALID,25.17,VALID,297.0,VALID,0.0,
2018-11-27, 09:48:06,VALID,920.294,VALID,0.0,VALID,74.053,VALID,954.84,VALID,25.353,INVALID,360.0,VALID,0.0,
2018-11-27, 09:49:06,VALID,920.294,VALID,0.0,VALID,74.192,VALID,871.457,VALID,25.213,INVALID,360.0,VALID,0.0,
2018-11-27, 09:50:06,VALID,920.314,VALID,0.0,VALID,74.686,VALID,876.857,VALID,25.105,INVALID,360.0,VALID,0.0,
2018-11-27, 09:51:06,VALID,920.323,VALID,0.0,VALID,76.169,VALID,624.217,VALID,25.022,VALID,234.0,VALID,0.0,
2018-11-27, 09:52:06,VALID,920.313,VALID,0.0,VALID,75.889,VALID,547.017,VALID,25.175,VALID,264.0,VALID,0.0,
2018-11-27, 09:53:06,VALID,920.316,VALID,0.0,VALID,75.083,VALID,615.091,VALID,25.174,VALID,251.0,VALID,0.0,
2018-11-27, 09:54:06,VALID,920.323,VALID,0.0,VALID,73.957,VALID,544.411,VALID,25.058,VALID,249.0,VALID,0.0,
2018-11-27, 09:55:06,VALID,920.319,VALID,0.0,VALID,73.73,VALID,559.957,VALID,24.965,VALID,272.0,VALID,0.0,
2018-11-27, 09:56:06,VALID,920.307,VALID,0.0,VALID,73.667,VALID,787.507,VALID,24.987,VALID,271.0,VALID,0.0,
2018-11-27, 09:57:06,VALID,920.302,VALID,0.0,VALID,74.764,VALID,780.535,VALID,25.323,VALID,342.0,VALID,0.0,
2018-11-27, 09:58:07,VALID,920.272,VALID,0.0,VALID,72.866,VALID,528.225,VALID,25.536,VALID,288.0,VALID,0.843,
2018-11-27, 09:59:07,VALID,920.27,VALID,0.0,VALID,72.862,VALID,697.99,VALID,25.178,VALID,279.0,VALID,0.257,
2018-11-27, 10:00:07,VALID,920.266,VALID,0.0,VALID,74.463,VALID,418.627,VALID,25.134,VALID,254.0,VALID,0.213,
2018-11-27, 10:01:07,VALID,920.247,VALID,0.0,VALID,73.395,VALID,369.106,VALID,25.103,VALID,259.0,VALID,0.536,
2018-11-27, 10:02:07,VALID,920.257,VALID,0.0,VALID,74.889,VALID,339.784,VALID,25.034,VALID,260.0,VALID,0.0,
2018-11-27, 10:03:07,VALID,920.262,VALID,0.0,VALID,76.122,VALID,319.653,VALID,25.122,VALID,192.0,VALID,0.0,
2018-11-27, 10:04:07,VALID,920.259,VALID,0.0,VALID,75.256,VALID,298.418,VALID,25.303,VALID,112.0,VALID,0.0,
2018-11-27, 10:05:07,VALID,920.24,VALID,0.0,VALID,74.914,VALID,286.727,VALID,25.522,VALID,320.0,VALID,0.0,
2018-11-27, 10:06:07,VALID,920.248,VALID,0.0,VALID,71.974,VALID,278.588,VALID,25.456,VALID,314.0,VALID,0.0,
2018-11-27, 10:07:07,VALID,920.226,VALID,0.0,VALID,71.716,VALID,276.309,VALID,25.179,VALID,352.0,VALID,0.0,
2018-11-27, 10:08:07,VALID,920.215,VALID,0.0,VALID,70.724,VALID,275.974,VALID,24.835,VALID,350.0,VALID,0.0,
2018-11-27, 10:09:07,VALID,920.22,VALID,0.0,VALID,73.443,VALID,284.531,VALID,24.71,VALID,356.0,VALID,0.0,
2018-11-27, 10:10:07,VALID,920.203,VALID,0.0,VALID,73.454,VALID,299.494,VALID,24.784,VALID,357.0,VALID,0.0,
2018-11-27, 10:11:07,VALID,920.202,VALID,0.0,VALID,74.161,VALID,304.715,VALID,24.733,VALID,339.0,VALID,0.0,
2018-11-27, 10:12:07,VALID,920.194,VALID,0.0,VALID,74.867,VALID,321.035,VALID,24.815,VALID,312.0,VALID,0.0,
2018-11-27, 10:13:07,VALID,920.166,VALID,0.0,VALID,74.37,VALID,380.984,VALID,25.0,VALID,332.0,VALID,0.0,
2018-11-27, 10:14:07,VALID,920.155,VALID,0.0,VALID,73.02,VALID,662.195,VALID,25.19,VALID,308.0,VALID,0.0,
2018-11-27, 10:15:07,VALID,920.155,VALID,0.0,VALID,72.165,VALID,597.22,VALID,25.288,VALID,262.0,VALID,0.0,
2018-11-27, 10:16:07,VALID,920.142,VALID,0.0,VALID,72.032,VALID,636.538,VALID,25.373,VALID,273.0,VALID,0.0,
2018-11-27, 10:17:07,VALID,920.114,VALID,0.0,VALID,71.015,VALID,760.895,VALID,25.369,VALID,355.0,VALID,0.0,
2018-11-27, 10:18:07,VALID,920.12,VALID,0.0,VALID,72.348,VALID,849.007,VALID,25.314,VALID,13.0,VALID,0.0,
2018-11-27, 10:19:07,VALID,920.094,VALID,0.0,VALID,73.413,VALID,826.026,VALID,25.212,VALID,2.0,VALID,0.0,
2018-11-27, 10:20:07,VALID,920.087,VALID,0.0,VALID,73.996,VALID,815.073,VALID,25.308,VALID,350.0,VALID,0.0,
2018-11-27, 10:21:07,VALID,920.057,VALID,0.0,VALID,72.841,VALID,797.672,VALID,25.663,VALID,323.0,VALID,0.0,
2018-11-27, 10:22:07,VALID,920.038,VALID,0.0,VALID,69.523,VALID,844.017,VALID,25.979,VALID,317.0,VALID,0.0,
2018-11-27, 10:23:07,VALID,920.031,VALID,0.0,VALID,65.916,VALID,886.699,VALID,26.257,VALID,317.0,VALID,0.0,
2018-11-27, 10:24:07,VALID,920.016,VALID,0.0,VALID,64.604,VALID,844.09,VALID,26.28,VALID,288.0,VALID,0.0,
2018-11-27, 10:25:07,VALID,919.994,VALID,0.0,VALID,64.402,VALID,686.03,VALID,26.079,VALID,250.0,VALID,0.0,
2018-11-27, 10:26:07,VALID,919.984,VALID,0.0,VALID,64.929,VALID,825.589,VALID,25.87,VALID,216.0,VALID,0.0,
2018-11-27, 10:27:07,VALID,919.975,VALID,0.0,VALID,65.737,VALID,864.344,VALID,25.94,VALID,200.0,VALID,0.0,
2018-11-27, 10:28:07,VALID,919.956,VALID,0.0,VALID,66.108,VALID,793.319,VALID,26.106,VALID,199.0,VALID,0.0,
2018-11-27, 10:29:07,VALID,919.945,VALID,0.0,VALID,67.03,VALID,862.378,VALID,26.061,VALID,239.0,VALID,0.0,
2018-11-27, 10:30:07,VALID,919.928,VALID,0.0,VALID,67.421,VALID,797.847,VALID,25.627,VALID,232.0,VALID,0.0,
2018-11-27, 10:31:07,VALID,919.91,VALID,0.0,VALID,68.839,VALID,924.897,VALID,25.526,VALID,261.0,VALID,0.0,
2018-11-27, 10:32:07,VALID,919.909,VALID,0.0,VALID,68.937,VALID,1027.454,VALID,25.71,VALID,328.0,VALID,0.0,
2018-11-27, 10:33:07,VALID,919.876,VALID,0.0,VALID,68.541,VALID,1053.59,VALID,25.942,VALID,235.0,VALID,0.0,
2018-11-27, 10:34:07,VALID,919.852,VALID,0.0,VALID,69.033,VALID,819.47,VALID,25.8,VALID,231.0,VALID,0.0,
2018-11-27, 10:35:07,VALID,919.837,VALID,0.0,VALID,69.609,VALID,859.943,VALID,26.041,VALID,109.0,VALID,0.0,
2018-11-27, 10:36:07,VALID,919.808,VALID,0.0,VALID,69.401,VALID,921.431,VALID,26.509,VALID,94.0,VALID,0.0,
2018-11-27, 10:37:07,VALID,919.791,VALID,0.0,VALID,71.108,VALID,872.407,VALID,26.975,VALID,29.0,VALID,0.031,
2018-11-27, 10:38:07,VALID,919.782,VALID,0.0,VALID,67.565,VALID,1008.399,VALID,27.035,VALID,13.0,VALID,0.0,